Powrót do katalogu

ATLAS 5 CENTAUR DEB

AktywnyHEO
NORAD 44654·DEBRIS·🇺🇸 United States

Wystrzelony Oct 17, 2018 z Cape Canaveral Space Force Station

Loading…

Następne Przeloty (najbliższe 24 godziny)

TLE

ŚwieżeSource: Space-Track

Epoka: Sep 11, 2026, 12:00 UTC

1 44654U 18079Q   26254.50020338 -.00000190  00000-0  00000-0 0  9999
2 44654  13.6685  27.2671 4683347 326.0281  11.2431  1.80723610 46859

Śledź ATLAS 5 CENTAUR DEB w czasie rzeczywistym z AllMySat

Download on the App Store